EZY9805 EGKK-EHAM

Flight info

Callsign EZY9805
Flight time 0h 38m
Altitude 29000
Route FRANE1Z FRANE M604 GASBA M197 REDFA REDFA1A
Aircraft A20N/M-SDE2E3FGHIRWXY/LB1

Departure

Time 2026-05-06 11:13
Airport London Gatwick Airport (EGKK)

Arrival

Time 2026-05-06 11:52
Airport Amsterdam Airport Schiphol (EHAM)
Time Latitude Longitude Altitude Speed Heading
2026-05-06 10:49 51.15462 -0.17084 218 ft 0 kts 348°
2026-05-06 11:02 51.15453 -0.17081 215 ft 3 kts 348°
2026-05-06 11:02 51.15436 -0.17075 211 ft 3 kts 316°
2026-05-06 11:02 51.15429 -0.17055 217 ft 0 kts 261°
2026-05-06 11:06 51.15429 -0.17056 217 ft 0 kts 259°
2026-05-06 11:07 51.15428 -0.17063 208 ft 1 kts 252°
2026-05-06 11:07 51.15420 -0.17090 215 ft 5 kts 244°
2026-05-06 11:07 51.15394 -0.17166 212 ft 10 kts 245°
2026-05-06 11:07 51.15363 -0.17305 209 ft 16 kts 246°
2026-05-06 11:08 51.15307 -0.17468 212 ft 19 kts 246°
2026-05-06 11:08 51.15268 -0.17697 213 ft 23 kts 256°
2026-05-06 11:08 51.15227 -0.17974 216 ft 27 kts 254°
2026-05-06 11:08 51.15185 -0.18283 218 ft 30 kts 259°
2026-05-06 11:09 51.15143 -0.18624 216 ft 33 kts 259°
2026-05-06 11:09 51.15091 -0.18993 211 ft 35 kts 258°
2026-05-06 11:09 51.15039 -0.19375 215 ft 36 kts 258°
2026-05-06 11:09 51.14981 -0.19775 213 ft 38 kts 258°
2026-05-06 11:10 51.14926 -0.20199 215 ft 38 kts 261°
2026-05-06 11:10 51.14867 -0.20614 213 ft 39 kts 257°
2026-05-06 11:10 51.14821 -0.20983 209 ft 29 kts 259°
2026-05-06 11:10 51.14767 -0.21293 209 ft 30 kts 257°
2026-05-06 11:11 51.14705 -0.21399 207 ft 6 kts 166°
2026-05-06 11:11 51.14656 -0.21362 214 ft 10 kts 153°
2026-05-06 11:11 51.14575 -0.21300 208 ft 14 kts 150°
2026-05-06 11:11 51.14522 -0.21177 212 ft 14 kts 94°
2026-05-06 11:12 51.14527 -0.21090 217 ft 0 kts 75°
2026-05-06 11:12 51.14549 -0.20941 215 ft 44 kts 77°
2026-05-06 11:12 51.14663 -0.20112 212 ft 108 kts 78°
2026-05-06 11:12 51.14874 -0.18666 321 ft 145 kts 83°
2026-05-06 11:13 51.15143 -0.17007 712 ft 173 kts 72°
2026-05-06 11:13 51.15408 -0.15102 1477 ft 182 kts 74°
2026-05-06 11:13 51.15691 -0.12957 1924 ft 214 kts 74°
2026-05-06 11:13 51.16024 -0.10468 2451 ft 240 kts 75°
2026-05-06 11:14 51.16381 -0.07811 3309 ft 249 kts 75°
2026-05-06 11:14 51.16741 -0.05083 4188 ft 256 kts 76°
2026-05-06 11:14 51.16892 -0.02212 4768 ft 266 kts 85°
2026-05-06 11:14 51.16863 0.00787 5393 ft 273 kts 88°
2026-05-06 11:15 51.16796 0.03829 6367 ft 277 kts 88°
2026-05-06 11:15 51.16728 0.06923 7244 ft 282 kts 88°
2026-05-06 11:15 51.16663 0.10050 8229 ft 283 kts 89°
2026-05-06 11:15 51.16600 0.13207 9218 ft 286 kts 89°
2026-05-06 11:16 51.16566 0.16378 10195 ft 288 kts 87°
2026-05-06 11:16 51.16564 0.19027 10872 ft 293 kts 87°
2026-05-06 11:16 51.16571 0.22303 11693 ft 298 kts 88°
2026-05-06 11:16 51.16578 0.25640 12583 ft 303 kts 88°
2026-05-06 11:17 51.16584 0.29028 13446 ft 308 kts 88°
2026-05-06 11:17 51.16588 0.32481 14196 ft 315 kts 89°
2026-05-06 11:17 51.16592 0.35987 15000 ft 318 kts 89°
2026-05-06 11:17 51.16595 0.39536 15797 ft 322 kts 89°
2026-05-06 11:18 51.16597 0.43141 16489 ft 328 kts 89°
2026-05-06 11:18 51.16644 0.46753 17212 ft 331 kts 85°
2026-05-06 11:18 51.17045 0.50371 17973 ft 333 kts 69°
2026-05-06 11:18 51.18225 0.53529 18587 ft 335 kts 45°
2026-05-06 11:19 51.20107 0.55692 19223 ft 334 kts 21°
2026-05-06 11:19 51.22323 0.56832 19878 ft 336 kts 11°
2026-05-06 11:19 51.24620 0.57686 20479 ft 341 kts 10°
2026-05-06 11:19 51.26951 0.58511 21120 ft 345 kts 10°
2026-05-06 11:20 51.29281 0.59348 21702 ft 350 kts 10°
2026-05-06 11:20 51.31676 0.60220 22297 ft 354 kts 11°
2026-05-06 11:20 51.34093 0.61110 22877 ft 357 kts 11°
2026-05-06 11:20 51.36534 0.62015 23469 ft 361 kts 11°
2026-05-06 11:21 51.38989 0.62931 23965 ft 365 kts 11°
2026-05-06 11:21 51.41505 0.63876 24205 ft 376 kts 11°
2026-05-06 11:21 51.44061 0.64841 24386 ft 388 kts 12°
2026-05-06 11:21 51.46737 0.65855 24571 ft 400 kts 12°
2026-05-06 11:22 51.49492 0.66870 24741 ft 411 kts
2026-05-06 11:22 51.52324 0.67844 24900 ft 422 kts
2026-05-06 11:22 51.55243 0.68846 25067 ft 432 kts
2026-05-06 11:22 51.58206 0.69896 25308 ft 440 kts
2026-05-06 11:23 51.61204 0.70995 25732 ft 443 kts
2026-05-06 11:23 51.64218 0.72124 26122 ft 446 kts 10°
2026-05-06 11:23 51.67246 0.73275 26532 ft 448 kts 10°
2026-05-06 11:23 51.70293 0.74440 26905 ft 452 kts 10°
2026-05-06 11:24 51.73365 0.75619 27319 ft 453 kts 10°
2026-05-06 11:24 51.76444 0.76803 27693 ft 456 kts 10°
2026-05-06 11:24 51.79536 0.77997 28082 ft 458 kts 11°
2026-05-06 11:24 51.82530 0.79842 28343 ft 465 kts 26°
2026-05-06 11:25 51.85121 0.82888 28781 ft 468 kts 41°
2026-05-06 11:25 51.87226 0.86931 28960 ft 473 kts 55°
2026-05-06 11:25 51.88669 0.91699 28966 ft 473 kts 70°
2026-05-06 11:25 51.89379 0.96905 28969 ft 473 kts 83°
2026-05-06 11:26 51.89428 1.02220 28963 ft 472 kts 94°
2026-05-06 11:26 51.89722 1.12679 28954 ft 468 kts 77°
2026-05-06 11:27 51.91303 1.22965 28960 ft 471 kts 73°
2026-05-06 11:27 51.93144 1.33163 28959 ft 472 kts 72°
2026-05-06 11:28 51.95009 1.43370 28952 ft 472 kts 72°
2026-05-06 11:28 51.96837 1.53601 28952 ft 472 kts 73°
2026-05-06 11:29 51.98621 1.63749 28955 ft 471 kts 73°
2026-05-06 11:29 52.00281 1.74055 28956 ft 472 kts 75°
2026-05-06 11:30 52.01842 1.84415 28955 ft 471 kts 75°
2026-05-06 11:30 52.03421 1.94750 28811 ft 471 kts 75°
2026-05-06 11:30 52.04183 1.99931 28530 ft 471 kts 79°
2026-05-06 11:31 52.04905 2.05061 28257 ft 471 kts 78°
2026-05-06 11:31 52.05649 2.10240 27985 ft 472 kts 78°
2026-05-06 11:31 52.06412 2.15435 27433 ft 470 kts 78°
2026-05-06 11:31 52.07182 2.20601 26672 ft 469 kts 78°
2026-05-06 11:32 52.07954 2.25745 25989 ft 467 kts 78°
2026-05-06 11:32 52.08723 2.30862 25357 ft 464 kts 78°
2026-05-06 11:32 52.09484 2.35934 24750 ft 460 kts 78°
2026-05-06 11:32 52.10239 2.40974 24227 ft 456 kts 78°
2026-05-06 11:33 52.11009 2.45981 23985 ft 457 kts 75°
2026-05-06 11:33 52.12186 2.50800 23951 ft 458 kts 64°
2026-05-06 11:33 52.13716 2.55279 23951 ft 458 kts 60°
2026-05-06 11:33 52.15358 2.59801 23938 ft 457 kts 60°
2026-05-06 11:34 52.16965 2.64202 23941 ft 457 kts 60°
2026-05-06 11:34 52.18589 2.68666 23941 ft 457 kts 60°
2026-05-06 11:34 52.20203 2.73122 23942 ft 457 kts 60°
2026-05-06 11:34 52.21815 2.77589 23935 ft 457 kts 60°
2026-05-06 11:35 52.23425 2.82063 23934 ft 457 kts 60°
2026-05-06 11:35 52.25030 2.86533 23573 ft 452 kts 60°
2026-05-06 11:35 52.26615 2.90959 22850 ft 450 kts 60°
2026-05-06 11:35 52.28170 2.95306 22173 ft 447 kts 60°
2026-05-06 11:36 52.29734 2.99685 21522 ft 443 kts 60°
2026-05-06 11:36 52.31276 3.04008 20937 ft 438 kts 60°
2026-05-06 11:36 52.32801 3.08294 20270 ft 435 kts 60°
2026-05-06 11:36 52.34312 3.12548 19741 ft 429 kts 60°
2026-05-06 11:37 52.35802 3.16751 19102 ft 426 kts 60°
2026-05-06 11:37 52.37279 3.20924 18568 ft 421 kts 60°
2026-05-06 11:37 52.38743 3.25069 17884 ft 419 kts 59°
2026-05-06 11:37 52.40194 3.29182 17290 ft 413 kts 59°
2026-05-06 11:38 52.41623 3.33238 16606 ft 410 kts 59°
2026-05-06 11:38 52.43039 3.37265 16071 ft 404 kts 60°
2026-05-06 11:38 52.44368 3.41296 15421 ft 402 kts 67°
2026-05-06 11:38 52.45238 3.45633 14840 ft 397 kts 76°
2026-05-06 11:39 52.45879 3.49991 14456 ft 388 kts 78°
2026-05-06 11:39 52.46461 3.54180 14251 ft 374 kts 78°
2026-05-06 11:39 52.47028 3.58266 14070 ft 360 kts 78°
2026-05-06 11:39 52.47578 3.62210 13871 ft 348 kts 78°
2026-05-06 11:40 52.48111 3.66007 13717 ft 335 kts 78°
2026-05-06 11:40 52.48628 3.69668 13527 ft 324 kts 78°
2026-05-06 11:40 52.49134 3.73236 13231 ft 317 kts 78°
2026-05-06 11:40 52.49629 3.76720 12917 ft 311 kts 78°
2026-05-06 11:41 52.50117 3.80167 12469 ft 309 kts 78°
2026-05-06 11:41 52.50603 3.83613 12073 ft 307 kts 78°
2026-05-06 11:41 52.51080 3.87003 11728 ft 303 kts 77°
2026-05-06 11:41 52.51550 3.90350 11333 ft 301 kts 77°
2026-05-06 11:42 52.52010 3.93693 10950 ft 298 kts 80°
2026-05-06 11:42 52.52147 3.97055 10642 ft 295 kts 98°
2026-05-06 11:42 52.51714 4.00303 10222 ft 295 kts 109°
2026-05-06 11:42 52.51036 4.03484 9849 ft 294 kts 111°
2026-05-06 11:43 52.50307 4.06608 9451 ft 291 kts 112°
2026-05-06 11:43 52.49382 4.09518 9089 ft 287 kts 127°
2026-05-06 11:43 52.48100 4.12046 8658 ft 286 kts 132°
2026-05-06 11:44 52.45401 4.16795 7872 ft 281 kts 133°
2026-05-06 11:44 52.44515 4.18318 7606 ft 280 kts 133°
2026-05-06 11:44 52.43150 4.20613 7095 ft 282 kts 133°
2026-05-06 11:44 52.41778 4.22916 6726 ft 280 kts 133°
2026-05-06 11:45 52.39998 4.25920 6295 ft 275 kts 133°
2026-05-06 11:45 52.38662 4.28153 5885 ft 273 kts 134°
2026-05-06 11:45 52.37781 4.29630 5629 ft 272 kts 133°
2026-05-06 11:45 52.36467 4.31842 5244 ft 269 kts 133°
2026-05-06 11:46 52.35154 4.34046 4829 ft 268 kts 133°
2026-05-06 11:46 52.33854 4.36221 4391 ft 267 kts 133°
2026-05-06 11:46 52.32461 4.38229 3999 ft 267 kts 141°
2026-05-06 11:46 52.30971 4.40031 3596 ft 266 kts 143°
2026-05-06 11:47 52.29463 4.41784 3184 ft 265 kts 143°
2026-05-06 11:47 52.27978 4.43487 2786 ft 264 kts 143°
2026-05-06 11:47 52.26475 4.45186 2380 ft 263 kts 143°
2026-05-06 11:47 52.24973 4.46874 2053 ft 260 kts 143°
2026-05-06 11:48 52.23484 4.48545 1993 ft 260 kts 143°
2026-05-06 11:48 52.22115 4.50464 1985 ft 257 kts 122°
2026-05-06 11:48 52.21559 4.53136 1992 ft 248 kts 89°
2026-05-06 11:48 52.21874 4.55839 1985 ft 241 kts 67°
2026-05-06 11:49 52.22692 4.58109 2001 ft 223 kts 55°
2026-05-06 11:49 52.23553 4.60080 1993 ft 203 kts 56°
2026-05-06 11:49 52.24296 4.61945 1754 ft 190 kts 58°
2026-05-06 11:49 52.24971 4.63704 1474 ft 175 kts 57°
2026-05-06 11:50 52.25589 4.65285 1239 ft 159 kts 57°
2026-05-06 11:50 52.26163 4.66745 1021 ft 147 kts 57°
2026-05-06 11:50 52.26689 4.68091 822 ft 135 kts 57°
2026-05-06 11:50 52.27185 4.69363 663 ft 131 kts 56°
2026-05-06 11:51 52.27673 4.70615 477 ft 131 kts 57°
2026-05-06 11:51 52.28164 4.71873 310 ft 131 kts 57°
2026-05-06 11:51 52.28648 4.73117 125 ft 129 kts 58°
2026-05-06 11:51 52.29123 4.74323 24 ft 118 kts 55°
2026-05-06 11:52 52.29412 4.75022 18 ft 49 kts 57°
2026-05-06 11:52 52.29594 4.75352 22 ft 21 kts 359°
2026-05-06 11:52 52.29648 4.75328 23 ft 0 kts 335°
2026-05-06 11:52 52.29655 4.75323 22 ft 2 kts 335°
2026-05-06 11:53 52.29675 4.75308 20 ft 5 kts 335°
2026-05-06 11:53 52.29713 4.75287 20 ft 7 kts 346°
2026-05-06 11:53 52.29762 4.75283 19 ft 7 kts 11°
2026-05-06 11:53 52.29807 4.75314 20 ft 7 kts 30°
2026-05-06 11:54 52.29849 4.75370 19 ft 9 kts 45°
2026-05-06 11:54 52.29883 4.75433 16 ft 0 kts 56°
2026-05-06 11:54 52.29889 4.75447 16 ft 3 kts 56°
2026-05-06 11:54 52.29909 4.75499 16 ft 11 kts 58°
2026-05-06 11:55 52.29964 4.75648 14 ft 20 kts 57°
2026-05-06 11:55 52.30027 4.75892 14 ft 24 kts 93°
2026-05-06 11:55 52.30059 4.76157 16 ft 27 kts 60°
2026-05-06 11:55 52.30166 4.76436 16 ft 31 kts 60°
2026-05-06 11:56 52.30288 4.76749 16 ft 35 kts 58°
2026-05-06 11:56 52.30423 4.77105 13 ft 39 kts 57°
2026-05-06 11:56 52.30568 4.77481 17 ft 38 kts 56°
2026-05-06 11:56 52.30795 4.77600 16 ft 37 kts
2026-05-06 11:57 52.31062 4.77620 16 ft 40 kts
2026-05-06 11:57 52.31322 4.77648 18 ft 37 kts
2026-05-06 11:57 52.31553 4.77481 15 ft 40 kts 303°
2026-05-06 11:57 52.31566 4.76999 14 ft 46 kts 266°
2026-05-06 11:58 52.31551 4.76518 20 ft 28 kts 269°
2026-05-06 11:58 52.31551 4.76222 20 ft 26 kts 265°
2026-05-06 11:58 52.31529 4.75882 19 ft 35 kts 264°
2026-05-06 11:58 52.31487 4.75470 14 ft 23 kts 220°
2026-05-06 11:59 52.31305 4.75459 10 ft 31 kts 179°
2026-05-06 11:59 52.31159 4.75469 6 ft 12 kts 176°
2026-05-06 11:59 52.31092 4.75476 2 ft 8 kts 157°
2026-05-06 11:59 52.31084 4.75483 2 ft 4 kts 152°
2026-05-06 12:00 52.31059 4.75506 1 ft 6 kts 150°
2026-05-06 12:00 52.31056 4.75508 1 ft 0 kts 150°